Year,Month,Day,Hour,Minute,Value (Times are PST for temperature in C)
2011,07,22,00,00,11.90
2011,07,22,00,01,11.90
2011,07,22,00,02,11.80
2011,07,22,00,03,11.80
2011,07,22,00,04,11.80
2011,07,22,00,05,11.80
2011,07,22,00,06,11.80
2011,07,22,00,07,11.80
2011,07,22,00,08,11.80
2011,07,22,00,09,11.80
2011,07,22,00,10,11.80
2011,07,22,00,11,11.80
2011,07,22,00,12,11.80
2011,07,22,00,13,11.70
2011,07,22,00,14,11.70
2011,07,22,00,15,11.70
2011,07,22,00,16,11.70
2011,07,22,00,17,11.80
2011,07,22,00,18,11.80
2011,07,22,00,19,11.80
2011,07,22,00,20,11.80
2011,07,22,00,21,11.80
2011,07,22,00,22,11.80
2011,07,22,00,23,11.80
2011,07,22,00,24,11.80
2011,07,22,00,25,11.80
2011,07,22,00,26,11.80
2011,07,22,00,27,11.80
2011,07,22,00,28,11.80
2011,07,22,00,29,11.80
2011,07,22,00,30,11.80
2011,07,22,00,31,11.80
2011,07,22,00,32,11.80
2011,07,22,00,33,11.80
2011,07,22,00,34,11.80
2011,07,22,00,35,11.80
2011,07,22,00,36,11.80
2011,07,22,00,37,11.80
2011,07,22,00,38,11.80
2011,07,22,00,39,11.80
2011,07,22,00,40,11.80
2011,07,22,00,41,11.80
2011,07,22,00,42,11.80
2011,07,22,00,43,11.80
2011,07,22,00,44,11.80
2011,07,22,00,45,11.70
2011,07,22,00,46,11.70
2011,07,22,00,47,11.70
2011,07,22,00,48,11.60
2011,07,22,00,49,11.60
2011,07,22,00,50,11.60
2011,07,22,00,51,11.50
2011,07,22,00,52,11.50
2011,07,22,00,53,11.50
2011,07,22,00,54,11.40
2011,07,22,00,55,11.40
2011,07,22,00,56,11.40
2011,07,22,00,57,11.30
2011,07,22,00,58,11.30
2011,07,22,00,59,11.30
2011,07,22,01,00,11.30
2011,07,22,01,01,11.30
2011,07,22,01,02,11.30
2011,07,22,01,03,11.30
2011,07,22,01,04,11.30
2011,07,22,01,05,11.30
2011,07,22,01,06,11.30
2011,07,22,01,07,11.30
2011,07,22,01,08,11.30
2011,07,22,01,09,11.20
2011,07,22,01,10,11.20
2011,07,22,01,11,11.20
2011,07,22,01,12,11.10
2011,07,22,01,13,11.10
2011,07,22,01,14,11.00
2011,07,22,01,15,11.00
2011,07,22,01,16,10.90
2011,07,22,01,17,10.90
2011,07,22,01,18,10.90
2011,07,22,01,19,10.90
2011,07,22,01,20,10.90
2011,07,22,01,21,10.90
2011,07,22,01,22,10.90
2011,07,22,01,23,11.00
2011,07,22,01,24,11.00
2011,07,22,01,25,11.00
2011,07,22,01,26,11.00
2011,07,22,01,27,11.00
2011,07,22,01,28,11.00
2011,07,22,01,29,11.00
2011,07,22,01,30,11.00
2011,07,22,01,31,11.00
2011,07,22,01,32,11.00
2011,07,22,01,33,11.10
2011,07,22,01,34,11.00
2011,07,22,01,35,11.00
2011,07,22,01,36,11.00
2011,07,22,01,37,10.90
2011,07,22,01,38,10.90
2011,07,22,01,39,10.90
2011,07,22,01,40,10.90
2011,07,22,01,41,10.90
2011,07,22,01,42,10.80
2011,07,22,01,43,10.80
2011,07,22,01,44,10.80
2011,07,22,01,45,10.80
2011,07,22,01,46,10.80
2011,07,22,01,47,10.80
2011,07,22,01,48,10.80
2011,07,22,01,49,10.80
2011,07,22,01,50,10.80
2011,07,22,01,51,10.80
2011,07,22,01,52,10.80
2011,07,22,01,53,10.80
2011,07,22,01,54,10.80
2011,07,22,01,55,10.80
2011,07,22,01,56,10.90
2011,07,22,01,57,10.90
2011,07,22,01,58,10.90
2011,07,22,01,59,11.00
2011,07,22,02,00,11.10
2011,07,22,02,01,11.10
2011,07,22,02,02,11.20
2011,07,22,02,03,11.30
2011,07,22,02,04,11.30
2011,07,22,02,05,11.40
2011,07,22,02,06,11.50
2011,07,22,02,07,11.50
2011,07,22,02,08,11.50
2011,07,22,02,09,11.60
2011,07,22,02,10,11.60
2011,07,22,02,11,11.60
2011,07,22,02,12,11.60
2011,07,22,02,13,11.50
2011,07,22,02,14,11.50
2011,07,22,02,15,11.50
2011,07,22,02,16,11.50
2011,07,22,02,17,11.50
2011,07,22,02,18,11.50
2011,07,22,02,19,11.50
2011,07,22,02,20,11.60
2011,07,22,02,21,11.60
2011,07,22,02,22,11.60
2011,07,22,02,23,11.60
2011,07,22,02,24,11.70
2011,07,22,02,25,11.70
2011,07,22,02,26,11.70
2011,07,22,02,27,11.70
2011,07,22,02,28,11.70
2011,07,22,02,29,11.70
2011,07,22,02,30,11.60
2011,07,22,02,31,11.60
2011,07,22,02,32,11.60
2011,07,22,02,33,11.60
2011,07,22,02,34,11.60
2011,07,22,02,35,11.60
2011,07,22,02,36,11.50
2011,07,22,02,37,11.50
2011,07,22,02,38,11.50
2011,07,22,02,39,11.40
2011,07,22,02,40,11.40
2011,07,22,02,41,11.40
2011,07,22,02,42,11.30
2011,07,22,02,43,11.30
2011,07,22,02,44,11.30
2011,07,22,02,45,11.30
2011,07,22,02,46,11.20
2011,07,22,02,47,11.20
2011,07,22,02,48,11.20
2011,07,22,02,49,11.20
2011,07,22,02,50,11.20
2011,07,22,02,51,11.20
2011,07,22,02,52,11.20
2011,07,22,02,53,11.20
2011,07,22,02,54,11.20
2011,07,22,02,55,11.20
2011,07,22,02,56,11.20
2011,07,22,02,57,11.20
2011,07,22,02,58,11.20
2011,07,22,02,59,11.10
2011,07,22,03,00,11.10
2011,07,22,03,01,11.10
2011,07,22,03,02,11.10
2011,07,22,03,03,11.10
2011,07,22,03,06,11.00
2011,07,22,03,07,11.00
2011,07,22,03,08,11.00
2011,07,22,03,09,11.00
2011,07,22,03,10,11.00
2011,07,22,03,11,11.00
2011,07,22,03,12,10.90
2011,07,22,03,13,10.90
2011,07,22,03,14,10.90
2011,07,22,03,15,10.80
2011,07,22,03,16,10.80
2011,07,22,03,17,10.80
2011,07,22,03,18,10.80
2011,07,22,03,19,10.80
2011,07,22,03,20,10.80
2011,07,22,03,21,10.80
2011,07,22,03,22,10.80
2011,07,22,03,23,10.80
2011,07,22,03,24,10.80
2011,07,22,03,25,10.90
2011,07,22,03,26,10.90
2011,07,22,03,27,11.00
2011,07,22,03,28,11.00
2011,07,22,03,29,11.10
2011,07,22,03,30,11.10
2011,07,22,03,31,11.10
2011,07,22,03,32,11.10
2011,07,22,03,33,11.10
2011,07,22,03,34,11.10
2011,07,22,03,35,11.10
2011,07,22,03,36,11.00
2011,07,22,03,37,11.00
2011,07,22,03,38,11.00
2011,07,22,03,39,10.90
2011,07,22,03,40,10.90
2011,07,22,03,41,10.90
2011,07,22,03,42,10.90
2011,07,22,03,43,10.90
2011,07,22,03,44,10.90
2011,07,22,03,45,10.80
2011,07,22,03,46,10.80
2011,07,22,03,47,10.70
2011,07,22,03,48,10.70
2011,07,22,03,49,10.70
2011,07,22,03,50,10.60
2011,07,22,03,51,10.60
2011,07,22,03,52,10.60
2011,07,22,03,53,10.60
2011,07,22,03,54,10.60
2011,07,22,03,55,10.60
2011,07,22,03,56,10.60
2011,07,22,03,57,10.70
2011,07,22,03,58,10.70
2011,07,22,03,59,10.70
2011,07,22,04,00,10.70
2011,07,22,04,01,10.80
2011,07,22,04,02,10.80
2011,07,22,04,03,10.80
2011,07,22,04,04,10.80
2011,07,22,04,05,10.80
2011,07,22,04,06,10.90
2011,07,22,04,07,10.90
2011,07,22,04,08,10.90
2011,07,22,04,09,10.90
2011,07,22,04,10,10.90
2011,07,22,04,11,10.90
2011,07,22,04,12,10.90
2011,07,22,04,13,10.90
2011,07,22,04,14,10.80
2011,07,22,04,15,10.80
2011,07,22,04,16,10.70
2011,07,22,04,17,10.70
2011,07,22,04,18,10.60
2011,07,22,04,19,10.60
2011,07,22,04,20,10.50
2011,07,22,04,21,10.40
2011,07,22,04,22,10.40
2011,07,22,04,23,10.30
2011,07,22,04,24,10.30
2011,07,22,04,25,10.20
2011,07,22,04,26,10.20
2011,07,22,04,27,10.30
2011,07,22,04,28,10.20
2011,07,22,04,29,10.30
2011,07,22,04,30,10.20
2011,07,22,04,31,10.20
2011,07,22,04,32,10.20
2011,07,22,04,33,10.20
2011,07,22,04,34,10.20
2011,07,22,04,35,10.20
2011,07,22,04,36,10.20
2011,07,22,04,37,10.20
2011,07,22,04,38,10.20
2011,07,22,04,39,10.20
2011,07,22,04,40,10.10
2011,07,22,04,41,10.10
2011,07,22,04,42,10.10
2011,07,22,04,43,10.10
2011,07,22,04,44,10.00
2011,07,22,04,45,10.00
2011,07,22,04,46,10.00
2011,07,22,04,47,9.90
2011,07,22,04,48,9.90
2011,07,22,04,49,9.90
2011,07,22,04,50,9.90
2011,07,22,04,51,9.90
2011,07,22,04,52,9.90
2011,07,22,04,53,9.90
2011,07,22,04,54,9.90
2011,07,22,04,55,9.90
2011,07,22,04,56,9.90
2011,07,22,04,57,10.00
2011,07,22,04,58,10.00
2011,07,22,04,59,10.00
2011,07,22,05,00,10.00
2011,07,22,05,01,10.00
2011,07,22,05,02,10.00
2011,07,22,05,03,10.00
2011,07,22,05,04,10.00
2011,07,22,05,05,10.00
2011,07,22,05,06,10.00
2011,07,22,05,07,10.00
2011,07,22,05,08,9.90
2011,07,22,05,09,9.90
2011,07,22,05,10,9.90
2011,07,22,05,11,9.90
2011,07,22,05,12,9.90
2011,07,22,05,13,9.80
2011,07,22,05,14,9.80
2011,07,22,05,15,9.80
2011,07,22,05,16,9.80
2011,07,22,05,17,9.80
2011,07,22,05,18,9.80
2011,07,22,05,19,9.70
2011,07,22,05,20,9.70
2011,07,22,05,21,9.70
2011,07,22,05,22,9.70
2011,07,22,05,23,9.70
2011,07,22,05,24,9.60
2011,07,22,05,25,9.60
2011,07,22,05,26,9.60
2011,07,22,05,27,9.60
2011,07,22,05,28,9.60
2011,07,22,05,29,9.60
2011,07,22,05,30,9.60
2011,07,22,05,31,9.60
2011,07,22,05,32,9.60
2011,07,22,05,33,9.60
2011,07,22,05,34,9.60
2011,07,22,05,35,9.60
2011,07,22,05,36,9.60
2011,07,22,05,37,9.60
2011,07,22,05,38,9.60
2011,07,22,05,39,9.60
2011,07,22,05,40,9.60
2011,07,22,05,41,9.60
2011,07,22,05,42,9.60
2011,07,22,05,43,9.50
2011,07,22,05,44,9.50
2011,07,22,05,45,9.50
2011,07,22,05,46,9.50
2011,07,22,05,47,9.50
2011,07,22,05,48,9.50
2011,07,22,05,49,9.50
2011,07,22,05,50,9.50
2011,07,22,05,51,9.50
2011,07,22,05,52,9.60
2011,07,22,05,53,9.60
2011,07,22,05,54,9.60
2011,07,22,05,55,9.60
2011,07,22,05,56,9.60
2011,07,22,05,57,9.60
2011,07,22,05,58,9.60
2011,07,22,05,59,9.60
2011,07,22,06,00,9.60
2011,07,22,06,01,9.50
2011,07,22,06,02,9.50
2011,07,22,06,03,9.50
2011,07,22,06,04,9.50
2011,07,22,06,05,9.50
2011,07,22,06,06,9.50
2011,07,22,06,07,9.60
2011,07,22,06,08,9.60
2011,07,22,06,09,9.60
2011,07,22,06,10,9.60
2011,07,22,06,11,9.60
2011,07,22,06,12,9.60
2011,07,22,06,13,9.60
2011,07,22,06,14,9.60
2011,07,22,06,15,9.60
2011,07,22,06,16,9.70
2011,07,22,06,17,9.70
2011,07,22,06,18,9.70
2011,07,22,06,19,9.70
2011,07,22,06,20,9.70
2011,07,22,06,21,9.80
2011,07,22,06,22,9.80
2011,07,22,06,23,9.80
2011,07,22,06,24,9.90
2011,07,22,06,25,9.90
2011,07,22,06,26,9.90
2011,07,22,06,27,9.90
2011,07,22,06,28,10.00
2011,07,22,06,29,10.00
2011,07,22,06,30,10.10
2011,07,22,06,31,10.10
2011,07,22,06,32,10.20
2011,07,22,06,33,10.20
2011,07,22,06,34,10.30
2011,07,22,06,35,10.30
2011,07,22,06,36,10.40
2011,07,22,06,37,10.40
2011,07,22,06,38,10.50
2011,07,22,06,39,10.70
2011,07,22,06,40,10.80
2011,07,22,06,41,10.90
2011,07,22,06,42,10.90
2011,07,22,06,43,11.00
2011,07,22,06,44,11.00
2011,07,22,06,45,11.10
2011,07,22,06,46,11.10
2011,07,22,06,47,11.20
2011,07,22,06,48,11.20
2011,07,22,06,49,11.30
2011,07,22,06,50,11.30
2011,07,22,06,51,11.40
2011,07,22,06,52,11.50
2011,07,22,06,53,11.50
2011,07,22,06,54,11.60
2011,07,22,06,55,11.70
2011,07,22,06,56,11.80
2011,07,22,06,57,11.90
2011,07,22,06,58,12.00
2011,07,22,06,59,12.10
2011,07,22,07,00,12.30
2011,07,22,07,01,12.40
2011,07,22,07,02,12.50
2011,07,22,07,03,12.60
2011,07,22,07,04,12.70
2011,07,22,07,05,12.80
2011,07,22,07,06,12.80
2011,07,22,07,07,12.90
2011,07,22,07,08,13.00
2011,07,22,07,09,13.10
2011,07,22,07,10,13.30
2011,07,22,07,11,13.40
2011,07,22,07,12,13.50
2011,07,22,07,13,13.60
2011,07,22,07,14,13.80
2011,07,22,07,15,14.00
2011,07,22,07,16,14.20
2011,07,22,07,17,14.30
2011,07,22,07,18,14.40
2011,07,22,07,19,14.60
2011,07,22,07,20,14.70
2011,07,22,07,21,14.70
2011,07,22,07,22,14.70
2011,07,22,07,23,14.60
2011,07,22,07,24,14.60
2011,07,22,07,25,14.60
2011,07,22,07,26,14.60
2011,07,22,07,27,14.60
2011,07,22,07,28,14.60
2011,07,22,07,29,14.70
2011,07,22,07,30,14.80
2011,07,22,07,31,14.80
2011,07,22,07,32,14.90
2011,07,22,07,33,15.00
2011,07,22,07,34,15.00
2011,07,22,07,35,15.00
2011,07,22,07,36,15.00
2011,07,22,07,37,15.00
2011,07,22,07,38,15.10
2011,07,22,07,39,15.30
2011,07,22,07,40,15.40
2011,07,22,07,41,15.60
2011,07,22,07,42,15.70
2011,07,22,07,43,15.80
2011,07,22,07,44,15.90
2011,07,22,07,45,16.00
2011,07,22,07,46,16.10
2011,07,22,07,47,16.10
2011,07,22,07,48,16.20
2011,07,22,07,49,16.20
2011,07,22,07,50,16.20
2011,07,22,07,51,16.30
2011,07,22,07,52,16.30
2011,07,22,07,53,16.30
2011,07,22,07,54,16.30
2011,07,22,07,55,16.30
2011,07,22,07,56,16.20
2011,07,22,07,57,16.20
2011,07,22,07,58,16.20
2011,07,22,07,59,16.20
2011,07,22,08,00,16.20
2011,07,22,08,01,16.20
2011,07,22,08,02,16.20
2011,07,22,08,03,16.20
2011,07,22,08,04,16.20
2011,07,22,08,05,16.20
2011,07,22,08,06,16.20
2011,07,22,08,07,16.10
2011,07,22,08,08,16.10
2011,07,22,08,09,16.10
2011,07,22,08,10,16.10
2011,07,22,08,11,16.20
2011,07,22,08,12,16.20
2011,07,22,08,13,16.20
2011,07,22,08,14,16.30
2011,07,22,08,15,16.30
2011,07,22,08,16,16.40
2011,07,22,08,17,16.40
2011,07,22,08,18,16.40
2011,07,22,08,19,16.50
2011,07,22,08,20,16.50
2011,07,22,08,21,16.50
2011,07,22,08,22,16.50
2011,07,22,08,23,16.40
2011,07,22,08,24,16.40
2011,07,22,08,25,16.30
2011,07,22,08,26,16.30
2011,07,22,08,27,16.20
2011,07,22,08,28,16.20
2011,07,22,08,29,16.20
2011,07,22,08,30,16.10
2011,07,22,08,31,16.10
2011,07,22,08,32,16.10
2011,07,22,08,33,16.10
2011,07,22,08,34,16.10
2011,07,22,08,35,16.10
2011,07,22,08,36,16.20
2011,07,22,08,37,16.20
2011,07,22,08,38,16.20
2011,07,22,08,39,16.30
2011,07,22,08,40,16.30
2011,07,22,08,41,16.30
2011,07,22,08,42,16.30
2011,07,22,08,43,16.40
2011,07,22,08,44,16.50
2011,07,22,08,45,16.50
2011,07,22,08,46,16.60
2011,07,22,08,47,16.60
2011,07,22,08,48,16.60
2011,07,22,08,49,16.60
2011,07,22,08,50,16.60
2011,07,22,08,51,16.60
2011,07,22,08,52,16.60
2011,07,22,08,53,16.60
2011,07,22,08,54,16.60
2011,07,22,08,55,16.70
2011,07,22,08,56,16.70
2011,07,22,08,57,16.70
2011,07,22,08,58,16.70
2011,07,22,08,59,16.70
2011,07,22,09,00,16.70
2011,07,22,09,01,16.80
2011,07,22,09,02,16.70
2011,07,22,09,03,16.70
2011,07,22,09,04,16.70
2011,07,22,09,05,16.70
2011,07,22,09,06,16.70
2011,07,22,09,07,16.60
2011,07,22,09,08,16.60
2011,07,22,09,09,16.70
2011,07,22,09,10,16.70
2011,07,22,09,11,16.70
2011,07,22,09,12,16.70
2011,07,22,09,13,16.60
2011,07,22,09,14,16.50
2011,07,22,09,15,16.40
2011,07,22,09,16,16.40
2011,07,22,09,17,16.40
2011,07,22,09,18,16.40
2011,07,22,09,19,16.30
2011,07,22,09,20,16.30
2011,07,22,09,21,16.30
2011,07,22,09,22,16.30
2011,07,22,09,23,16.30
2011,07,22,09,24,16.30
2011,07,22,09,25,16.40
2011,07,22,09,26,16.40
2011,07,22,09,27,16.40
2011,07,22,09,28,16.40
2011,07,22,09,29,16.40
2011,07,22,09,30,16.40
2011,07,22,09,31,16.40
2011,07,22,09,32,16.40
2011,07,22,09,33,16.50
2011,07,22,09,34,16.60
2011,07,22,09,35,16.60
2011,07,22,09,36,16.60
2011,07,22,09,37,16.60
2011,07,22,09,38,16.60
2011,07,22,09,39,16.70
2011,07,22,09,40,16.70
2011,07,22,09,41,16.70
2011,07,22,09,42,16.70
2011,07,22,09,43,16.70
2011,07,22,09,44,16.70
2011,07,22,09,45,16.70
2011,07,22,09,46,16.70
2011,07,22,09,47,16.60
2011,07,22,09,48,16.70
2011,07,22,09,49,16.60
2011,07,22,09,50,16.60
2011,07,22,09,51,16.60
2011,07,22,09,52,16.70
2011,07,22,09,53,16.70
2011,07,22,09,54,16.70
2011,07,22,09,55,16.70
2011,07,22,09,56,16.70
2011,07,22,09,57,16.70
2011,07,22,09,58,16.80
2011,07,22,09,59,16.80
2011,07,22,10,00,16.80
2011,07,22,10,01,16.80
2011,07,22,10,02,16.80
2011,07,22,10,03,16.80
2011,07,22,10,04,16.60
2011,07,22,10,05,16.50
2011,07,22,10,06,16.40
2011,07,22,10,07,16.30
2011,07,22,10,08,16.30
2011,07,22,10,09,16.30
2011,07,22,10,10,16.40
2011,07,22,10,11,16.50
2011,07,22,10,12,16.60
2011,07,22,10,13,16.60
2011,07,22,10,14,16.70
2011,07,22,10,15,16.70
2011,07,22,10,16,16.80
2011,07,22,10,17,16.80
2011,07,22,10,18,16.80
2011,07,22,10,19,16.80
2011,07,22,10,20,16.90
2011,07,22,10,21,16.90
2011,07,22,10,22,16.90
2011,07,22,10,23,17.00
2011,07,22,10,24,17.00
2011,07,22,10,25,17.10
2011,07,22,10,26,17.10
2011,07,22,10,27,17.10
2011,07,22,10,28,17.10
2011,07,22,10,29,17.00
2011,07,22,10,30,17.00
2011,07,22,10,31,17.00
2011,07,22,10,32,17.00
2011,07,22,10,33,16.90
2011,07,22,10,34,16.90
2011,07,22,10,35,16.90
2011,07,22,10,36,16.90
2011,07,22,10,37,16.90
2011,07,22,10,38,17.00
2011,07,22,10,39,17.00
2011,07,22,10,40,17.10
2011,07,22,10,41,17.10
2011,07,22,10,42,17.10
2011,07,22,10,43,17.10
2011,07,22,10,44,17.10
2011,07,22,10,45,17.10
2011,07,22,10,46,17.10
2011,07,22,10,47,17.20
2011,07,22,10,48,17.20
2011,07,22,10,49,17.20
2011,07,22,10,50,17.20
2011,07,22,10,51,17.20
2011,07,22,10,52,17.10
2011,07,22,10,53,16.90
2011,07,22,10,54,16.80
2011,07,22,10,55,16.70
2011,07,22,10,56,16.70
2011,07,22,10,57,16.60
2011,07,22,10,58,16.60
2011,07,22,10,59,16.60
2011,07,22,11,00,16.70
2011,07,22,11,01,16.70
2011,07,22,11,02,16.80
2011,07,22,11,03,16.80
2011,07,22,11,04,16.80
2011,07,22,11,05,16.70
2011,07,22,11,06,16.70
2011,07,22,11,07,16.60
2011,07,22,11,08,16.60
2011,07,22,11,09,16.60
2011,07,22,11,10,16.50
2011,07,22,11,11,16.60
2011,07,22,11,12,16.60
2011,07,22,11,13,16.70
2011,07,22,11,14,16.80
2011,07,22,11,15,16.90
2011,07,22,11,16,17.00
2011,07,22,11,17,17.10
2011,07,22,11,18,17.20
2011,07,22,11,19,17.30
2011,07,22,11,20,17.40
2011,07,22,11,21,17.40
2011,07,22,11,22,17.40
2011,07,22,11,23,17.30
2011,07,22,11,24,17.30
2011,07,22,11,25,17.30
2011,07,22,11,26,17.30
2011,07,22,11,27,17.30
2011,07,22,11,28,17.20
2011,07,22,11,29,17.10
2011,07,22,11,30,17.00
2011,07,22,11,31,16.90
2011,07,22,11,32,16.90
2011,07,22,11,33,16.80
2011,07,22,11,34,16.80
2011,07,22,11,35,16.80
2011,07,22,11,36,16.80
2011,07,22,11,37,16.90
2011,07,22,11,38,16.80
2011,07,22,11,39,16.80
2011,07,22,11,40,16.70
2011,07,22,11,41,16.70
2011,07,22,11,42,16.70
2011,07,22,11,43,16.80
2011,07,22,11,44,16.90
2011,07,22,11,45,17.00
2011,07,22,11,46,17.10
2011,07,22,11,47,17.20
2011,07,22,11,48,17.20
2011,07,22,11,49,17.10
2011,07,22,11,50,17.00
2011,07,22,11,51,17.00
2011,07,22,11,52,16.90
2011,07,22,11,53,16.90
2011,07,22,11,54,16.80
2011,07,22,11,55,16.80
2011,07,22,11,56,16.90
2011,07,22,11,57,16.90
2011,07,22,11,58,16.90
2011,07,22,11,59,17.00
2011,07,22,12,00,17.10
2011,07,22,12,01,17.10
2011,07,22,12,02,17.10
2011,07,22,12,03,17.10
2011,07,22,12,04,17.10
2011,07,22,12,05,17.10
2011,07,22,12,06,17.20
2011,07,22,12,07,17.20
2011,07,22,12,08,17.30
2011,07,22,12,09,17.20
2011,07,22,12,10,17.30
2011,07,22,12,11,17.30
2011,07,22,12,12,17.30
2011,07,22,12,13,17.40
2011,07,22,12,14,17.50
2011,07,22,12,15,17.60
2011,07,22,12,16,17.70
2011,07,22,12,17,17.70
2011,07,22,12,18,17.80
2011,07,22,12,19,17.80
2011,07,22,12,20,17.80
2011,07,22,12,21,17.90
2011,07,22,12,22,17.90
2011,07,22,12,23,18.00
2011,07,22,12,24,18.00
2011,07,22,12,25,17.90
2011,07,22,12,26,17.90
2011,07,22,12,27,17.90
2011,07,22,12,28,17.80
2011,07,22,12,29,17.70
2011,07,22,12,30,17.60
2011,07,22,12,31,17.50
2011,07,22,12,32,17.50
2011,07,22,12,33,17.40
2011,07,22,12,34,17.30
2011,07,22,12,35,17.30
2011,07,22,12,36,17.20
2011,07,22,12,37,17.10
2011,07,22,12,38,17.20
2011,07,22,12,39,17.30
2011,07,22,12,40,17.20
2011,07,22,12,41,17.30
2011,07,22,12,42,17.30
2011,07,22,12,43,17.50
2011,07,22,12,44,17.50
2011,07,22,12,45,17.40
2011,07,22,12,46,17.30
2011,07,22,12,47,17.20
2011,07,22,12,48,17.20
2011,07,22,12,49,17.20
2011,07,22,12,50,17.30
2011,07,22,12,51,17.40
2011,07,22,12,52,17.50
2011,07,22,12,53,17.70
2011,07,22,12,54,17.90
2011,07,22,12,55,18.00
2011,07,22,12,56,18.00
2011,07,22,12,57,18.10
2011,07,22,12,58,18.20
2011,07,22,12,59,18.30
2011,07,22,13,00,18.40
2011,07,22,13,01,18.50
2011,07,22,13,02,18.60
2011,07,22,13,03,18.60
2011,07,22,13,04,18.50
2011,07,22,13,05,18.30
2011,07,22,13,06,18.20
2011,07,22,13,07,18.10
2011,07,22,13,08,18.00
2011,07,22,13,09,17.80
2011,07,22,13,10,17.80
2011,07,22,13,11,17.90
2011,07,22,13,12,17.90
2011,07,22,13,13,17.90
2011,07,22,13,14,17.90
2011,07,22,13,15,17.90
2011,07,22,13,16,17.90
2011,07,22,13,17,17.90
2011,07,22,13,18,17.80
2011,07,22,13,19,17.70
2011,07,22,13,20,17.60
2011,07,22,13,21,17.60
2011,07,22,13,22,17.60
2011,07,22,13,23,17.70
2011,07,22,13,24,17.70
2011,07,22,13,25,17.70
2011,07,22,13,26,17.80
2011,07,22,13,27,17.80
2011,07,22,13,28,17.80
2011,07,22,13,29,17.80
2011,07,22,13,30,17.80
2011,07,22,13,31,17.90
2011,07,22,13,32,18.00
2011,07,22,13,33,18.10
2011,07,22,13,34,18.20
2011,07,22,13,35,18.30
2011,07,22,13,36,18.40
2011,07,22,13,37,18.40
2011,07,22,13,38,18.50
2011,07,22,13,39,18.60
2011,07,22,13,40,18.70
2011,07,22,13,41,18.70
2011,07,22,13,42,18.70
2011,07,22,13,43,18.80
2011,07,22,13,44,18.80
2011,07,22,13,45,18.80
2011,07,22,13,46,18.80
2011,07,22,13,47,18.90
2011,07,22,13,48,18.80
2011,07,22,13,49,18.80
2011,07,22,13,50,18.70
2011,07,22,13,51,18.60
2011,07,22,13,52,18.60
2011,07,22,13,53,18.70
2011,07,22,13,54,18.70
2011,07,22,13,55,18.80
2011,07,22,13,56,18.80
2011,07,22,13,57,18.90
2011,07,22,13,58,18.80
2011,07,22,13,59,18.60
2011,07,22,14,00,18.70
2011,07,22,14,01,18.80
2011,07,22,14,02,18.90
2011,07,22,14,03,18.90
2011,07,22,14,04,18.80
2011,07,22,14,05,18.70
2011,07,22,14,06,18.60
2011,07,22,14,07,18.70
2011,07,22,14,08,18.70
2011,07,22,14,09,18.70
2011,07,22,14,10,18.80
2011,07,22,14,11,19.00
2011,07,22,14,12,19.10
2011,07,22,14,13,19.00
2011,07,22,14,14,18.90
2011,07,22,14,15,18.90
2011,07,22,14,16,18.80
2011,07,22,14,17,18.80
2011,07,22,14,18,18.80
2011,07,22,14,19,18.70
2011,07,22,14,20,18.70
2011,07,22,14,21,18.70
2011,07,22,14,22,18.70
2011,07,22,14,23,18.80
2011,07,22,14,24,18.90
2011,07,22,14,25,19.00
2011,07,22,14,26,19.10
2011,07,22,14,27,19.10
2011,07,22,14,28,19.10
2011,07,22,14,29,19.00
2011,07,22,14,30,19.00
2011,07,22,14,31,18.90
2011,07,22,14,32,18.90
2011,07,22,14,33,19.00
2011,07,22,14,34,19.00
2011,07,22,14,35,18.90
2011,07,22,14,36,18.90
2011,07,22,14,37,19.00
2011,07,22,14,38,19.20
2011,07,22,14,39,19.20
2011,07,22,14,40,19.10
2011,07,22,14,41,19.10
2011,07,22,14,42,19.00
2011,07,22,14,43,19.00
2011,07,22,14,44,19.00
2011,07,22,14,45,19.10
2011,07,22,14,46,19.00
2011,07,22,14,47,18.90
2011,07,22,14,48,18.80
2011,07,22,14,49,18.80
2011,07,22,14,50,18.80
2011,07,22,14,51,18.80
2011,07,22,14,52,18.80
2011,07,22,14,53,18.80
2011,07,22,14,54,18.80
2011,07,22,14,55,18.80
2011,07,22,14,56,18.80
2011,07,22,14,57,18.80
2011,07,22,14,58,18.70
2011,07,22,14,59,18.60
2011,07,22,15,00,18.40
2011,07,22,15,01,18.30
2011,07,22,15,02,18.30
2011,07,22,15,03,18.40
2011,07,22,15,04,18.40
2011,07,22,15,05,18.40
2011,07,22,15,06,18.40
2011,07,22,15,07,18.40
2011,07,22,15,08,18.30
2011,07,22,15,09,18.40
2011,07,22,15,10,18.40
2011,07,22,15,11,18.30
2011,07,22,15,12,18.20
2011,07,22,15,13,18.20
2011,07,22,15,14,18.40
2011,07,22,15,15,18.60
2011,07,22,15,16,18.70
2011,07,22,15,17,18.60
2011,07,22,15,18,18.70
2011,07,22,15,19,18.80
2011,07,22,15,20,18.90
2011,07,22,15,21,18.90
2011,07,22,15,22,18.90
2011,07,22,15,23,19.00
2011,07,22,15,24,19.00
2011,07,22,15,25,18.90
2011,07,22,15,26,18.90
2011,07,22,15,27,18.90
2011,07,22,15,28,18.90
2011,07,22,15,29,18.90
2011,07,22,15,30,19.00
2011,07,22,15,31,19.10
2011,07,22,15,32,19.10
2011,07,22,15,33,19.10
2011,07,22,15,34,19.00
2011,07,22,15,35,19.00
2011,07,22,15,36,18.90
2011,07,22,15,37,18.90
2011,07,22,15,38,18.90
2011,07,22,15,39,18.90
2011,07,22,15,40,18.90
2011,07,22,15,41,18.90
2011,07,22,15,42,19.00
2011,07,22,15,43,19.00
2011,07,22,15,44,19.10
2011,07,22,15,45,19.10
2011,07,22,15,46,18.90
2011,07,22,15,47,18.80
2011,07,22,15,48,18.70
2011,07,22,15,49,18.70
2011,07,22,15,50,18.70
2011,07,22,15,51,18.70
2011,07,22,15,52,18.60
2011,07,22,15,53,18.60
2011,07,22,15,54,18.60
2011,07,22,15,55,18.60
2011,07,22,15,56,18.70
2011,07,22,15,57,18.80
2011,07,22,15,58,18.80
2011,07,22,15,59,18.80
2011,07,22,16,00,18.90
2011,07,22,16,01,18.90
2011,07,22,16,02,18.90
2011,07,22,16,03,19.00
2011,07,22,16,04,19.00
2011,07,22,16,05,19.00
2011,07,22,16,06,19.00
2011,07,22,16,07,19.00
2011,07,22,16,08,18.90
2011,07,22,16,09,18.90
2011,07,22,16,10,18.90
2011,07,22,16,11,18.90
2011,07,22,16,12,18.80
2011,07,22,16,13,18.90
2011,07,22,16,14,18.90
2011,07,22,16,15,19.00
2011,07,22,16,16,19.10
2011,07,22,16,17,19.10
2011,07,22,16,18,19.20
2011,07,22,16,19,19.20
2011,07,22,16,20,19.20
2011,07,22,16,21,19.20
2011,07,22,16,22,19.20
2011,07,22,16,23,19.20
2011,07,22,16,24,19.10
2011,07,22,16,25,19.10
2011,07,22,16,26,19.00
2011,07,22,16,27,18.90
2011,07,22,16,28,18.90
2011,07,22,16,29,19.00
2011,07,22,16,30,19.10
2011,07,22,16,31,19.00
2011,07,22,16,32,19.00
2011,07,22,16,33,19.10
2011,07,22,16,34,19.10
2011,07,22,16,35,19.10
2011,07,22,16,36,19.10
2011,07,22,16,37,19.10
2011,07,22,16,38,19.20
2011,07,22,16,39,19.20
2011,07,22,16,40,19.20
2011,07,22,16,41,19.20
2011,07,22,16,42,19.30
2011,07,22,16,43,19.30
2011,07,22,16,44,19.30
2011,07,22,16,45,19.30
2011,07,22,16,46,19.30
2011,07,22,16,47,19.20
2011,07,22,16,48,19.10
2011,07,22,16,49,18.90
2011,07,22,16,50,18.90
2011,07,22,16,51,18.90
2011,07,22,16,52,18.90
2011,07,22,16,53,18.90
2011,07,22,16,54,19.10
2011,07,22,16,55,19.10
2011,07,22,16,56,19.00
2011,07,22,16,57,18.90
2011,07,22,16,58,18.90
2011,07,22,16,59,18.90
2011,07,22,17,00,18.90
2011,07,22,17,01,18.90
2011,07,22,17,02,18.80
2011,07,22,17,03,18.70
2011,07,22,17,04,18.60
2011,07,22,17,05,18.70
2011,07,22,17,06,18.70
2011,07,22,17,07,18.90
2011,07,22,17,08,18.90
2011,07,22,17,09,18.90
2011,07,22,17,10,18.90
2011,07,22,17,11,18.90
2011,07,22,17,12,18.90
2011,07,22,17,13,18.90
2011,07,22,17,14,18.90
2011,07,22,17,15,18.90
2011,07,22,17,16,18.80
2011,07,22,17,17,18.70
2011,07,22,17,18,18.60
2011,07,22,17,19,18.70
2011,07,22,17,20,18.70
2011,07,22,17,21,18.70
2011,07,22,17,22,18.70
2011,07,22,17,23,18.70
2011,07,22,17,24,18.70
2011,07,22,17,25,18.60